Location: Ch�teau-Arnoux
(44.0814°N, 6.0027°E)
Time: 23:48:36
(UTC+00:00)

MSX - Pass Details

Date: 15 November 2019
Orbit: 895 x 905 km, 98.8° (Epoch: 15 December)

Event Time Altitude Azimuth Distance (km) Brightness Sun altitude
Rises 04:33:37 0° 6° (N) 3,526 6.9 -21.0°
Reaches altitude 10° 04:36:11 10° 359° (N) 2,583 6.1 -20.5°
Maximum altitude 04:41:23 37° 294° (WNW) 1,370 4.3 -19.6°
Enters shadow 04:42:27 34° 270° (W) 1,440 4.3 -19.4°
